TimeEST,TemperatureF,Dew PointF,Humidity,Sea Level PressureIn,VisibilityMPH,Wind Direction,Wind SpeedMPH,Gust SpeedMPH,PrecipitationIn,Events,Conditions,WindDirDegrees,DateUTC
12:42 AM,39.2,37.4,93,30.22,7.0,WNW,5.8,-,0.01,Rain,Light Rain,300,2012-11-13 05:42:00
12:56 AM,39.9,37.9,93,30.23,6.0,WNW,6.9,-,0.02,Rain,Light Rain,300,2012-11-13 05:56:00
1:20 AM,39.2,37.4,93,30.22,4.0,West,6.9,-,0.01,Rain,Light Rain,280,2012-11-13 06:20:00
1:30 AM,39.2,37.4,93,30.23,4.0,West,12.7,-,0.02,Rain,Light Rain,280,2012-11-13 06:30:00
1:49 AM,37.4,35.6,93,30.22,6.0,West,16.1,27.6,0.04,Rain,Light Rain,280,2012-11-13 06:49:00
1:56 AM,37.9,36.0,93,30.24,7.0,West,15.0,21.9,0.04,Rain,Light Rain,280,2012-11-13 06:56:00
2:30 AM,37.4,35.6,93,30.25,6.0,WNW,11.5,-,0.04,Rain,Rain,290,2012-11-13 07:30:00
2:36 AM,37.4,35.6,93,30.23,6.0,NW,9.2,-,0.04,Rain,Rain,310,2012-11-13 07:36:00
2:56 AM,36.0,34.0,93,30.27,7.0,WNW,13.8,-,0.07,Rain,Light Rain,300,2012-11-13 07:56:00
3:05 AM,35.6,33.8,93,30.25,6.0,WNW,13.8,-,0.01,Rain,Rain,290,2012-11-13 08:05:00
3:21 AM,33.8,33.8,100,30.27,3.0,West,10.4,-,0.04,,Overcast,260,2012-11-13 08:21:00
3:36 AM,35.6,33.8,93,30.27,10.0,Calm,Calm,-,0.04,Rain,Light Rain,0,2012-11-13 08:36:00
3:47 AM,35.6,33.8,93,30.25,10.0,Calm,Calm,-,0.04,Rain,Light Rain,0,2012-11-13 08:47:00
3:56 AM,34.9,32.9,92,30.27,10.0,SSE,3.5,-,0.04,Rain,Light Rain,160,2012-11-13 08:56:00
4:56 AM,34.0,32.9,96,30.28,10.0,SSE,3.5,-,0.00,,Mostly Cloudy,160,2012-11-13 09:56:00
5:56 AM,34.0,32.9,96,30.29,10.0,Calm,Calm,-,N/A,,Clear,0,2012-11-13 10:56:00
6:22 AM,33.8,32.0,93,30.29,10.0,Calm,Calm,-,N/A,,Mostly Cloudy,0,2012-11-13 11:22:00
6:56 AM,32.0,32.0,100,30.32,7.0,Calm,Calm,-,N/A,,Mostly Cloudy,0,2012-11-13 11:56:00
7:56 AM,34.0,32.9,96,30.35,10.0,Calm,Calm,-,N/A,,Mostly Cloudy,0,2012-11-13 12:56:00
8:56 AM,34.9,30.0,82,30.37,10.0,NNW,8.1,-,0.00,,Overcast,330,2012-11-13 13:56:00
9:56 AM,34.0,29.1,82,30.40,10.0,NNW,8.1,-,0.00,,Overcast,330,2012-11-13 14:56:00
10:56 AM,34.0,27.1,76,30.42,10.0,NW,9.2,-,N/A,,Overcast,320,2012-11-13 15:56:00
11:56 AM,34.9,27.1,73,30.41,10.0,WNW,9.2,-,N/A,,Overcast,290,2012-11-13 16:56:00
12:56 PM,36.0,26.1,67,30.40,10.0,NW,11.5,-,N/A,,Overcast,320,2012-11-13 17:56:00
1:56 PM,36.0,27.1,70,30.40,10.0,WNW,11.5,-,N/A,,Overcast,300,2012-11-13 18:56:00
2:56 PM,34.9,27.1,73,30.42,10.0,NW,8.1,-,N/A,,Overcast,320,2012-11-13 19:56:00
3:56 PM,34.0,27.1,76,30.44,10.0,NNW,5.8,-,N/A,,Overcast,330,2012-11-13 20:56:00
4:56 PM,34.0,27.1,76,30.45,10.0,NW,6.9,-,N/A,,Overcast,320,2012-11-13 21:56:00
5:56 PM,32.9,26.1,76,30.48,10.0,NW,5.8,-,N/A,,Overcast,320,2012-11-13 22:56:00
6:56 PM,32.9,23.0,67,30.50,10.0,NNW,6.9,-,N/A,,Overcast,330,2012-11-13 23:56:00
7:56 PM,32.9,25.2,73,30.51,10.0,Calm,Calm,-,N/A,,Overcast,0,2012-11-14 00:56:00
8:56 PM,32.9,24.1,70,30.53,10.0,NNW,5.8,-,N/A,,Overcast,330,2012-11-14 01:56:00
9:56 PM,32.9,23.0,67,30.53,10.0,NW,5.8,-,N/A,,Overcast,310,2012-11-14 02:56:00
10:56 PM,32.9,23.0,67,30.53,10.0,NW,3.5,-,N/A,,Overcast,310,2012-11-14 03:56:00
11:56 PM,32.9,23.0,67,30.54,10.0,NW,4.6,-,N/A,,Overcast,320,2012-11-14 04:56:00